WA2TQI Weather Reports


time (UTC)temp
F
wind
direction
speed
knots
gust
knots
rain 1hr
in
rain 24hr
in
rain mn
in
humidity
%
barometer
mb
20260505093214 64 227 0.9 2.6 0.00 0.00 0.00 78 1012.1
20260505092710 64 202 1.7 5.2 0.00 0.00 0.00 77 1012.0
20260505092209 63 156 0.9 5.2 0.00 0.00 0.00 78 1012.0
20260505091706 63 126 0.9 1.7 0.00 0.00 0.00 80 1012.1
20260505091204 63 205 0.9 7.8 0.00 0.00 0.00 81 1011.9
20260505090701 63 22 0.0 5.2 0.00 0.00 0.00 81 1011.7
20260505090159 63 202 5.2 7.0 0.00 0.00 0.00 79 1011.7
20260505085656 63 261 6.1 8.7 0.00 0.00 0.00 79 1011.3
20260505085154 63 228 3.5 5.2 0.00 0.00 0.00 79 1011.4
20260505084651 63 284 3.5 5.2 0.00 0.00 0.00 79 1011.6
20260505084150 62 234 1.7 5.2 0.00 0.00 0.00 79 1011.5
20260505083647 62 165 1.7 3.5 0.00 0.00 0.00 81 1011.8
20260505083143 61 139 0.0 0.9 0.00 0.00 0.00 83 1011.7
20260505082639 61 70 0.9 0.9 0.00 0.00 0.00 82 1011.6
20260505082137 62 111 0.9 2.6 0.00 0.00 0.00 82 1012.0
20260505081632 61 186 3.5 5.2 0.00 0.00 0.00 83 1012.0
20260505081130 61 157 1.7 2.6 0.00 0.00 0.00 83 1011.8
20260505080627 61 177 0.0 0.9 0.00 0.00 0.00 83 1011.9
20260505080123 61 246 0.0 1.7 0.00 0.00 0.00 82 1011.8
20260505075619 61 37 0.0 1.7 0.00 0.00 0.00 82 1011.8
20260505075116 61 184 0.0 3.5 0.00 0.00 0.00 82 1011.8
20260505074613 61 98 0.0 2.6 0.00 0.00 0.00 82 1011.7
20260505074110 61 191 0.0 1.7 0.00 0.00 0.00 83 1011.7
20260505073608 61 185 0.9 0.9 0.00 0.00 0.00 82 1011.9
20260505073106 61 132 0.9 5.2 0.00 0.00 0.00 82 1011.8
20260505072601 60 180 0.9 1.7 0.00 0.00 0.00 83 1011.9
20260505072058 60 51 0.0 0.9 0.00 0.00 0.00 83 1011.8
20260505071553 60 78 0.0 0.0 0.00 0.00 0.00 83 1011.9
20260505071052 60 52 0.0 0.0 0.00 0.00 0.00 83 1011.7
20260505070549 60 123 0.0 0.0 0.00 0.00 0.00 83 1011.7
20260505070045 60 135 0.0 0.0 0.00 0.00 0.00 83 1011.8
20260505065541 60 151 0.0 0.9 0.00 0.00 0.00 82 1011.8
20260505065038 60 162 0.9 1.7 0.00 0.00 0.00 82 1011.8
20260505064535 59 162 0.0 1.7 0.00 0.00 0.00 83 1011.6
20260505064033 60 131 0.0 0.0 0.00 0.00 0.00 82 1011.8
20260505063530 60 80 0.0 0.0 0.00 0.00 0.00 81 1011.8
20260505063026 60 69 0.0 0.9 0.00 0.00 0.00 81 1011.8
20260505062523 60 127 0.0 0.9 0.00 0.00 0.00 80 1011.7
20260505062020 60 110 0.0 0.0 0.00 0.00 0.00 81 1011.7
20260505061518 60 238 0.0 0.0 0.00 0.00 0.00 80 1011.6
20260505061015 60 121 0.0 1.7 0.00 0.00 0.00 80 1011.7
20260505060512 61 197 0.0 0.0 0.00 0.00 0.00 80 1011.9
20260505060009 61 145 0.0 2.6 0.00 0.00 0.00 79 1011.8
20260505055504 62 146 0.0 0.0 0.00 0.00 0.00 77 1011.9
20260505055001 62 322 0.9 1.7 0.00 0.00 0.00 77 1011.8
20260505054459 62 156 0.0 1.7 0.00 0.00 0.00 76 1011.8
20260505053956 62 223 0.0 3.5 0.00 0.00 0.00 75 1011.8
20260505053453 62 223 1.7 2.6 0.00 0.00 0.00 75 1011.9
20260505052950 62 201 0.9 3.5 0.00 0.00 0.00 75 1011.8
20260505052447 63 218 0.9 1.7 0.00 0.00 0.00 74 1011.7
20260505051944 63 122 0.0 1.7 0.00 0.00 0.00 74 1011.8
20260505051441 63 279 0.0 1.7 0.00 0.00 0.00 74 1012.0
20260505050939 63 294 0.0 6.1 0.00 0.00 0.00 74 1011.9
20260505050437 62 186 1.7 5.2 0.00 0.00 0.00 74 1011.9
20260505041405 62 155 1.7 5.2 0.00 0.00 0.00 74 1011.9
20260505040901 62 193 1.7 6.1 0.00 0.00 0.00 73 1012.0
20260505040359 62 230 1.7 3.5 0.00 0.00 0.00 74 1012.0
20260505035856 62 196 1.7 5.2 0.00 0.00 0.00 73 1012.1
20260505035351 62 169 1.7 5.2 0.00 0.00 0.00 74 1011.9
20260505034850 62 125 1.7 2.6 0.00 0.00 0.00 74 1011.9
20260505034346 62 162 0.9 0.9 0.00 0.00 0.00 75 1012.0
20260505033843 63 120 0.9 2.6 0.00 0.00 0.00 73 1011.9
20260505033340 63 159 0.9 6.1 0.00 0.00 0.00 73 1012.0
20260505032838 63 139 1.7 5.2 0.00 0.00 0.00 74 1011.9
20260505032334 63 119 0.0 3.5 0.00 0.00 0.00 74 1011.9
20260505031831 63 160 0.9 0.9 0.00 0.00 0.00 73 1011.8
20260505031328 63 149 2.6 3.5 0.00 0.00 0.00 72 1011.9
20260505030825 63 177 1.7 5.2 0.00 0.00 0.00 72 1012.0
20260505030321 63 134 1.7 6.1 0.00 0.00 0.00 72 1011.9
20260505025817 63 157 1.7 7.0 0.00 0.00 0.00 71 1012.0
20260505025314 62 175 0.9 2.6 0.00 0.00 0.00 71 1012.0
20260505024813 62 159 1.7 3.5 0.00 0.00 0.00 70 1012.2
20260505024309 62 137 0.0 5.2 0.00 0.00 0.00 70 1012.1
20260505023807 62 132 0.0 2.6 0.00 0.00 0.00 69 1012.2
20260505023303 63 177 1.7 3.5 0.00 0.00 0.00 68 1012.2
20260505022801 62 118 0.9 1.7 0.00 0.00 0.00 68 1012.2
20260505022258 63 149 1.7 1.7 0.00 0.00 0.00 67 1012.0
20260505021755 63 186 1.7 1.7 0.00 0.00 0.00 66 1012.2
20260505021252 63 168 1.7 2.6 0.00 0.00 0.00 65 1012.1
20260505020748 63 205 1.7 2.6 0.00 0.00 0.00 64 1012.1
20260505020242 63 189 2.6 2.6 0.00 0.00 0.00 63 1012.3
20260505015740 63 214 1.7 3.5 0.00 0.00 0.00 63 1012.0
20260505015237 63 87 0.9 1.7 0.00 0.00 0.00 62 1012.0
20260505014734 63 182 0.9 3.5 0.00 0.00 0.00 61 1012.0
20260505014231 63 118 1.7 1.7 0.00 0.00 0.00 62 1012.1
20260505013728 63 152 0.9 2.6 0.00 0.00 0.00 61 1012.1
20260505013225 64 130 0.9 0.9 0.00 0.00 0.00 61 1012.1
20260505012723 64 181 1.7 1.7 0.00 0.00 0.00 61 1011.9
20260505012220 64 164 0.9 1.7 0.00 0.00 0.00 61 1011.9
20260505011716 64 113 0.0 0.0 0.00 0.00 0.00 60 1011.9
20260505011214 64 171 0.0 0.0 0.00 0.00 0.00 60 1012.0
20260505010709 64 142 0.0 1.7 0.00 0.00 0.00 58 1012.0
20260505010206 65 169 0.0 1.7 0.00 0.00 0.00 58 1011.9
20260505005701 65 152 0.0 0.9 0.00 0.00 0.00 58 1011.6
20260505005159 65 195 1.7 1.7 0.00 0.00 0.00 56 1011.8
20260505004656 65 163 0.0 0.9 0.00 0.00 0.00 57 1011.6
20260505004153 65 174 1.7 3.5 0.00 0.00 0.00 56 1011.4
20260505003650 65 107 0.9 0.9 0.00 0.00 0.00 56 1011.6
20260505003147 66 141 0.0 0.9 0.00 0.00 0.00 56 1011.6
20260505002643 66 157 1.7 1.7 0.00 0.00 0.00 55 1011.6
20260505002141 66 128 0.0 0.9 0.00 0.00 0.00 56 1011.4
20260505001638 67 117 0.0 0.9 0.00 0.00 0.00 54 1011.2
20260505001136 67 161 0.0 0.9 0.00 0.00 0.00 53 1011.2
20260505000633 68 165 1.7 1.7 0.00 0.00 0.00 52 1011.2
20260505000131 68 160 0.9 2.6 0.00 0.00 0.00 52 1011.3
20260504235627 69 137 0.9 1.7 0.00 0.00 0.00 52 1011.2
20260504235123 69 170 0.9 5.2 0.00 0.00 0.00 52 1011.1
20260504234621 69 153 0.9 1.7 0.00 0.00 0.00 52 1011.1
20260504234118 69 208 0.0 0.9 0.00 0.00 0.00 51 1011.1
20260504233614 69 268 0.0 2.6 0.00 0.00 0.00 50 1011.1
20260504233110 70 161 0.9 2.6 0.00 0.00 0.00 49 1011.1
20260504232608 70 149 3.5 5.2 0.00 0.00 0.00 49 1011.0
20260504232105 70 195 1.7 7.0 0.00 0.00 0.00 48 1011.1
20260504231601 71 206 0.9 5.2 0.00 0.00 0.00 47 1011.0
20260504231057 71 170 1.7 3.5 0.00 0.00 0.00 47 1011.1
20260504230553 71 189 0.9 2.6 0.00 0.00 0.00 47 1011.2
20260504230052 71 191 0.9 3.5 0.00 0.00 0.00 47 1011.1
20260504225549 71 262 1.7 5.2 0.00 0.00 0.00 47 1010.9
20260504225046 71 219 1.7 2.6 0.00 0.00 0.00 45 1011.2
20260504224542 71 152 2.6 6.1 0.00 0.00 0.00 46 1010.9
20260504224040 71 168 0.9 3.5 0.00 0.00 0.00 45 1011.1
20260504223537 71 66 0.0 2.6 0.00 0.00 0.00 45 1011.1
20260504223032 71 133 3.5 7.8 0.00 0.00 0.00 45 1010.9
20260504222529 72 170 0.9 5.2 0.00 0.00 0.00 45 1011.0
20260504222027 72 177 3.5 6.1 0.00 0.00 0.00 45 1010.9
20260504221524 72 207 1.7 7.0 0.00 0.00 0.00 45 1011.1
20260504221021 72 203 1.7 7.0 0.00 0.00 0.00 44 1011.2
20260504220517 72 270 1.7 3.5 0.00 0.00 0.00 45 1011.1
20260504220014 73 199 4.3 6.1 0.00 0.00 0.00 44 1011.1
20260504215510 73 345 1.7 2.6 0.00 0.00 0.00 45 1011.1
20260504215008 73 131 1.7 2.6 0.00 0.00 0.00 44 1011.1
20260504214504 73 243 2.6 3.5 0.00 0.00 0.00 44 1011.2
20260504214000 73 220 0.0 3.5 0.00 0.00 0.00 45 1011.3
20260504213456 72 208 0.9 6.1 0.00 0.00 0.00 44 1011.3
20260504212954 73 169 3.5 5.2 0.00 0.00 0.00 43 1011.2
20260504212450 73 90 0.9 3.5 0.00 0.00 0.00 44 1011.1
20260504211948 73 215 3.5 7.0 0.00 0.00 0.00 44 1011.2
20260504211444 73 309 0.9 3.5 0.00 0.00 0.00 44 1011.2
20260504210942 73 171 1.7 7.8 0.00 0.00 0.00 44 1011.1
20260504210438 73 216 2.6 3.5 0.00 0.00 0.00 43 1011.1
20260504205935 73 183 4.3 6.1 0.00 0.00 0.00 43 1011.2
20260504205433 73 102 3.5 7.0 0.00 0.00 0.00 43 1011.4
20260504204931 73 194 1.7 6.1 0.00 0.00 0.00 43 1011.2
20260504204429 73 306 0.9 3.5 0.00 0.00 0.00 44 1011.1
20260504203928 73 167 1.7 7.8 0.00 0.00 0.00 43 1011.4
20260504203425 73 295 4.3 8.7 0.00 0.00 0.00 42 1011.2
20260504202920 73 53 1.7 5.2 0.00 0.00 0.00 42 1011.2
20260504202417 73 167 1.7 8.7 0.00 0.00 0.00 42 1011.1
20260504201914 73 22 0.9 6.1 0.00 0.00 0.00 42 1011.2
20260504201412 74 5 3.5 7.0 0.00 0.00 0.00 41 1011.1
20260504200909 73 153 5.2 7.0 0.00 0.00 0.00 41 1011.2
20260504200406 74 109 3.5 7.0 0.00 0.00 0.00 42 1011.2
20260504195902 74 328 0.0 6.1 0.00 0.00 0.00 42 1011.2
20260504195358 75 162 0.9 2.6 0.00 0.00 0.00 42 1011.2
20260504194855 74 241 1.7 3.5 0.00 0.00 0.00 42 1011.4
20260504194350 74 139 1.7 6.1 0.00 0.00 0.00 42 1011.6
20260504193847 74 45 3.5 8.7 0.00 0.00 0.00 41 1011.5
20260504193344 74 175 1.7 7.8 0.00 0.00 0.00 41 1011.7
20260504192843 73 170 0.9 2.6 0.00 0.00 0.00 43 1011.6
20260504192340 74 198 4.3 6.1 0.00 0.00 0.00 41 1011.8
20260504191838 73 228 3.5 3.5 0.00 0.00 0.00 42 1011.8
20260504191336 73 193 5.2 8.7 0.00 0.00 0.00 41 1011.9
20260504190831 74 105 0.0 1.7 0.00 0.00 0.00 42 1012.0
20260504190327 73 210 3.5 6.1 0.00 0.00 0.00 43 1012.1
20260504185824 72 200 5.2 8.7 0.00 0.00 0.00 42 1012.0
20260504185321 72 245 3.5 7.0 0.00 0.00 0.00 44 1012.4
20260504184817 72 113 4.3 9.6 0.00 0.00 0.00 43 1012.3
20260504184313 73 172 4.3 7.0 0.00 0.00 0.00 42 1012.5
20260504183809 73 304 1.7 3.5 0.00 0.00 0.00 43 1012.5
20260504183306 73 252 0.9 6.1 0.00 0.00 0.00 42 1012.6
20260504182804 72 149 0.9 5.2 0.00 0.00 0.00 43 1012.8
20260504182301 72 258 7.0 9.6 0.00 0.00 0.00 42 1012.7
20260504181759 71 222 2.6 7.0 0.00 0.00 0.00 43 1012.8
20260504181255 72 289 2.6 15.6 0.00 0.00 0.00 42 1012.9
20260504180755 72 193 2.6 9.6 0.00 0.00 0.00 42 1012.9
20260504180253 70 212 2.6 7.8 0.00 0.00 0.00 43 1013.1
20260504175750 71 201 5.2 12.2 0.00 0.00 0.00 43 1013.0
20260504175247 72 163 5.2 9.6 0.00 0.00 0.00 41 1013.3
20260504174745 72 182 8.7 8.7 0.00 0.00 0.00 41 1013.1
20260504174243 71 270 2.6 6.1 0.00 0.00 0.00 44 1013.3
20260504173739 71 13 0.0 3.5 0.00 0.00 0.00 44 1013.4
20260504173236 71 197 1.7 5.2 0.00 0.00 0.00 42 1013.6
20260504172733 71 207 5.2 7.0 0.00 0.00 0.00 42 1013.4
20260504172229 70 140 2.6 8.7 0.00 0.00 0.00 43 1013.5
20260504171725 71 20 2.6 3.5 0.00 0.00 0.00 42 1013.7
20260504171223 71 187 3.5 8.7 0.00 0.00 0.00 43 1013.7
20260504170719 71 192 3.5 7.0 0.00 0.00 0.00 44 1013.7
20260504170217 70 225 3.5 6.1 0.00 0.00 0.00 43 1013.8
20260504160135 70 11 0.0 7.0 0.00 0.00 0.00 45 1014.8
20260504151102 68 152 1.7 7.8 0.00 0.00 0.00 49 1015.0
20260504150600 67 175 1.7 2.6 0.00 0.00 0.00 51 1014.8
20260504141026 65 288 1.7 1.7 0.00 0.00 0.00 59 1015.3
20260504140522 65 238 1.7 5.2 0.00 0.00 0.00 61 1015.3
20260504130447 60 229 1.7 5.2 0.00 0.00 0.00 69 1015.9
20260504110334 48 146 0.9 0.9 0.00 0.00 0.00 91 1016.6
20260504100251 46 242 0.0 0.0 0.00 0.00 0.00 90 1016.6